Location: Kosice
(0.0000°N, 21.2500°E)
Time: 06:02:50
(UTC+01:00)

Meteor 2-15 Rocket - Pass Details

Date: 24 January 2021
Orbit: 939 x 955 km, 82.5° (Epoch: 04 March)

Event Time Altitude Azimuth Distance (km) Brightness Sun altitude
Rises 19:21:19 0° 356° (N) 3,615 7.3 -22.2°
Reaches altitude 10° 19:23:48 10° 356° (N) 2,671 6.6 -22.8°
Maximum altitude 19:29:55 88° 266° (W) 955 4.4 -24.2°
Drops below altitude 10° 19:36:03 10° 177° (S) 2,672 7.0 -25.6°
Sets 19:38:32 0° 177° (S) 3,616 7.7 -26.2°
